Location: Newark
(7.0858°N, 171.3717°E)
Time: 09:01:20
(UTC+00:00)

S-56A Canister/Altair - Pass Details

Date: 05 December 2020
Orbit: 633 x 2499 km, 38.9° (Epoch: 27 January)

Event Time Altitude Azimuth Distance (km) Brightness Sun altitude
Rises 23:48:24 0° 189° (S) 5,249 12.2 59.2°
Reaches altitude 10° 23:54:28 10° 165° (SSE) 4,632 12.2 59.6°
Maximum altitude 00:00:26 14° 138° (SE) 4,573 12.1 59.9°
Drops below altitude 10° 00:06:52 10° 111° (ESE) 5,097 12.1 60.2°
Sets 00:14:09 0° 90° (E) 6,173 12.2 60.4°
